Home   Weather   Makkah   Past weeks

Flag for Saudi Arabia Past Weather in Makkah, Saudi Arabia — Yesterday and Last 2 Weeks

Now
90 °F

Sunny.


Feels Like: 88 °F
Forecast: 66 / 88 °F
Wind: 6 mph from South

Location: Mecca Airport

Current Time: Jan 16, 2018 at 2:57:26 pm

Latest Report: Jan 16, 2018 at 2:00 pm


Visibility: 10 mi

Pressure: 29.95 "Hg

Humidity: 33%

Dew Point: 57 °F

Location of MakkahLocation

Past Weather in Makkah — Graph

°F

Makkah Temperature Yesterday

Maximum temperature yesterday: 93 °F (at 3:00 pm)
Minimum temperature yesterday: 68 °F (at 6:00 am)
Average temperature yesterday: 78 °F

High & Low Weather Summary for the Past Weeks

 TemperatureHumidityPressure
High93 °F (Jan 10, 3:00 pm)88% (Jan 6, 4:00 am)30.07 "Hg (Jan 6, 4:00 am)
Low63 °F (Jan 6, 7:00 am)17% (Jan 10, 4:00 pm)29.86 "Hg (Jan 2, 3:00 pm)
Average77 °F49%29.98 "Hg
* Reported Jan 1 1:00 pm — Jan 16 1:00 pm, Makkah. Weather by CustomWeather, © 2018

Note: Actual official high and low records may vary slightly from our data, if they occured in-between our weather recording intervals... More about our weather records

Advertising

Makkah Weather History for the Previous 24 Hours

Scroll right to see more
 ConditionsComfort  
Time TempWeatherWind HumidityBarometerVisibility
1:00 pm
Tue, Jan 16
88 °FSunny.5 mph35%29.98 "Hg10 mi
12:00 pm86 °FSunny.No wind40%30.01 "Hg10 mi
11:00 am84 °FSunny.No wind48%30.04 "Hg10 mi
10:00 am75 °FSunny.No wind65%30.04 "Hg10 mi
9:00 am68 °FSunny.No wind78%30.01 "Hg10 mi
8:00 am66 °FSunny.No wind78%30.01 "Hg10 mi
7:00 am66 °FClear.No wind78%29.98 "Hg10 mi
6:00 am66 °FClear.No wind78%29.98 "Hg10 mi
5:00 am68 °FClear.No wind73%29.98 "Hg10 mi
4:00 am68 °FClear.No wind73%29.98 "Hg10 mi
3:00 am70 °FClear.No wind69%29.98 "Hg10 mi
2:00 am70 °FClear.No wind73%30.01 "Hg10 mi
1:00 am72 °FClear.No wind69%30.01 "Hg10 mi
12:00 am72 °FClear.No wind65%30.01 "Hg10 mi
11:00 pm
Mon, Jan 15
72 °FClear.No wind69%30.04 "Hg10 mi
10:00 pm73 °FClear.7 mph65%30.04 "Hg10 mi
9:00 pm73 °FClear.9 mph65%30.01 "Hg10 mi
8:00 pm77 °FClear.7 mph54%30.01 "Hg10 mi
7:00 pm79 °FClear.8 mph48%29.98 "Hg10 mi
6:00 pm84 °FClear.12 mph43%29.95 "Hg10 mi
5:00 pm91 °FSunny.5 mph28%29.95 "Hg10 mi
4:00 pm93 °FSunny.5 mph24%29.95 "Hg10 mi
3:00 pm93 °FSunny.5 mph28%29.95 "Hg10 mi
Weather by CustomWeather, © 2018

See weather overview